Tracking 19800 objects as of 24-Jul-2019
HD Live streaming from Space Station
objects crossing your sky now

FENGYUN 1C DEB

Track FENGYUN 1C DEB now!
10-day predictions


NORAD ID: 37709
Int'l Code: 1999-025EMA
Perigee: 514.6 km
Apogee: 790.5 km
Inclination: 99.1 °
Period: 97.6 minutes
Semi major axis: 7023 km
RCS: 0.003 m2 (small)
Launch date: May 10, 1999
Source: People's Republic of China (PRC)
Launch site: Taiyaun Space Center, China (TSC)

Note: This is SATELLITE DEBRIS
aabbcc
Your satellite tracking list
Your tracking list is empty




NASA's NSSDC Master Catalog

Two Line Element Set (TLE):
1 37709U 99025EMA 11293.71917097 +.00019539 +00000-0 +21291-2 0  9992
2 37709 099.0949 113.0066 0196394 073.0537 271.8633 14.74921136115737
Source of the keplerian elements: AFSPC